Change the Weather History Date:

Thursday, March 14, 2013

  Actual Average Record
Temperature  
Mean Temperature 58 °F 51 °F  
Max Temperature 80 °F 67 °F 84 °F (2007)
Min Temperature 36 °F 35 °F 15 °F (1988)
Degree Days  
Heating Degree Days 7    
Growing Degree Days 8 (Base 50)    
Moisture  
Dew Point 9 °F    
Average Humidity 19    
Maximum Humidity 32    
Minimum Humidity 6    
Precipitation  
Precipitation 0.00 in 0.01 in 0.09 in (1985)
Month to date precipitation 0.19 0.25  
Year to date precipitation 0.48 1.45  
Sea Level Pressure  
Sea Level Pressure 30.11 in    
Wind  
Wind Speed 6 mph (North)    
Max Wind Speed 16 mph    
Max Gust Speed 21 mph    
Visibility 10 miles    
Events      
T = Trace of Precipitation, MM = Missing Value Source: NWS Daily Summary

Daily Weather History Graph

Daily Weather History Graph

Search for Another Location

Airport or City:

Trip Planner

Search our weather history database for the weather conditions in past years. The results will help you decide how hot, cold, wet, or windy it might be!

Date:

Astronomy

Mar. 14, 2013 Rise Set
Actual Time 7:21 AM MDT 7:18 PM MDT
Civil Twilight 6:57 AM MDT 7:42 PM MDT
Nautical Twilight 6:29 AM MDT 8:11 PM MDT
Astronomical Twilight 6:00 AM MDT 8:39 PM MDT
Moon 8:49 AM MDT (3/14) 10:23 PM MDT (3/14)
Length of Visible Light 12h 45m
Length of Day
11h 56m
Waxing Crescent, 9% of the Moon is Illuminated
Mar 14
Waxing Crescent
Mar 19
First Quarter
Mar 27
Full
Apr 2
Last Quarter
Apr 10
New

Hourly Weather History & Observations

Time (MDT) Temp. Windchill Dew Point Humidity Pressure Visibility Wind Dir Wind Speed Gust Speed Precip Events Conditions
12:53 AM 45.0 °F 42.6 °F 8.1 °F 22% 30.12 in 10.0 mi NNW 4.6 mph - N/A   Clear
1:53 AM 43.0 °F 38.8 °F 7.0 °F 23% 30.13 in 10.0 mi NW 6.9 mph - N/A   Clear
2:53 AM 42.1 °F - 7.0 °F 24% 30.11 in 10.0 mi Calm Calm - N/A   Clear
3:53 AM 41.0 °F 36.4 °F 10.9 °F 29% 30.11 in 10.0 mi NW 6.9 mph - N/A   Clear
4:53 AM 39.0 °F 34.8 °F 10.9 °F 32% 30.11 in 10.0 mi NW 5.8 mph - N/A   Clear
5:53 AM 37.9 °F 34.4 °F 10.0 °F 32% 30.12 in 10.0 mi NNW 4.6 mph - N/A   Clear
6:53 AM 37.9 °F 34.4 °F 9.0 °F 30% 30.14 in 10.0 mi North 4.6 mph - N/A   Clear
7:53 AM 37.9 °F 35.5 °F 9.0 °F 30% 30.18 in 10.0 mi SE 3.5 mph - N/A   Clear
8:53 AM 55.0 °F - 12.9 °F 19% 30.19 in 10.0 mi ENE 9.2 mph - N/A   Clear
9:53 AM 64.0 °F - 15.1 °F 15% 30.18 in 10.0 mi East 13.8 mph - N/A   Clear
10:53 AM 69.1 °F - 14.0 °F 12% 30.19 in 10.0 mi East 12.7 mph - N/A   Clear
11:53 AM 72.0 °F - 12.0 °F 10% 30.17 in 10.0 mi ENE 8.1 mph - N/A   Clear
12:53 PM 75.0 °F - 10.9 °F 9% 30.15 in 10.0 mi SE 6.9 mph - N/A   Clear
1:53 PM 75.9 °F - 9.0 °F 8% 30.12 in 10.0 mi Variable 5.8 mph - N/A   Clear
2:53 PM 78.1 °F - 7.0 °F 7% 30.08 in 10.0 mi East 9.2 mph - N/A   Clear
3:53 PM 78.1 °F - 8.1 °F 7% 30.06 in 10.0 mi Calm Calm - N/A   Clear
4:53 PM 79.0 °F - 7.0 °F 6% 30.06 in 10.0 mi Variable 4.6 mph - N/A   Clear
5:53 PM 78.1 °F - 7.0 °F 7% 30.05 in 10.0 mi Calm Calm - N/A   Clear
6:53 PM 75.9 °F - 8.1 °F 7% 30.05 in 10.0 mi South 6.9 mph - N/A   Clear
7:53 PM 69.1 °F - 8.1 °F 9% 30.07 in 10.0 mi SSW 4.6 mph - N/A   Clear
8:53 PM 64.9 °F - 8.1 °F 11% 30.04 in 10.0 mi SSW 4.6 mph - N/A   Clear
9:53 PM 61.0 °F - 10.9 °F 14% 30.04 in 10.0 mi Calm Calm - N/A   Clear
10:53 PM 53.1 °F - 9.0 °F 17% 30.06 in 10.0 mi NW 6.9 mph - N/A   Clear
11:53 PM 51.1 °F - 7.0 °F 17% 30.05 in 10.0 mi NW 8.1 mph - N/A   Clear